Location: Cicognara
(44.9500°N, 10.4667°E)
Time: 23:43:56
(UTC+00:00)

Cosmos 2219 Rocket - Pass Details

Date: 20 June 2021
Orbit: 828 x 846 km, 71.0° (Epoch: 23 July)

Event Time Altitude Azimuth Distance (km) Brightness Sun altitude
Exits shadow 20:15:00 - 182° (S) 3,247 4.8 -9.7°
Reaches altitude 10° 20:17:10 10° 176° (S) 2,460 4.2 -9.9°
Maximum altitude 20:22:27 42° 107° (ESE) 1,185 2.6 -10.6°
Drops below altitude 10° 20:27:45 10° 38° (NE) 2,473 4.8 -11.2°
Sets 20:30:18 0° 32° (NNE) 3,411 5.6 -11.5°
